K5AGY Weather Reports


Display with metric or nautical units.
time (UTC)temp
F
wind
direction
speed
MPH
gust
MPH
rain 1hr
in
rain 24hr
in
rain mn
in
humidity
%
barometer
mb
20260505124521 70 159 4.0 9.0 0.00 0.00 0.00 85 1008.1
20260505123055 70 140 4.0 8.0 0.00 0.00 0.00 85 1008.1
20260505121536 70 141 4.0 9.0 0.00 0.00 0.00 85 1008.0
20260505120016 69 164 3.0 8.0 0.00 0.00 0.00 85 1007.9
20260505114551 69 148 3.0 6.0 0.00 0.00 0.00 85 1007.7
20260505113020 69 169 3.0 5.0 0.00 0.00 0.00 85 1007.9
20260505111605 69 183 2.0 4.0 0.00 0.00 0.00 85 1007.7
20260505101535 68 186 1.0 4.0 0.00 0.00 0.00 85 1007.9
20260505100059 68 163 1.0 4.0 0.00 0.00 0.00 85 1007.8
20260505094539 68 136 1.0 4.0 0.00 0.00 0.00 85 1007.8
20260505093009 68 155 2.0 6.0 0.00 0.00 0.00 84 1007.8
20260505091550 68 135 1.0 5.0 0.00 0.00 0.00 84 1008.0
20260505090019 68 193 1.0 5.0 0.00 0.00 0.00 84 1008.2
20260505084552 68 162 2.0 4.0 0.00 0.00 0.00 84 1008.3
20260505083025 68 183 2.0 6.0 0.00 0.00 0.00 84 1008.2
20260505081559 68 187 2.0 5.0 0.00 0.00 0.00 83 1008.6
20260505080024 68 185 3.0 6.0 0.00 0.00 0.00 83 1008.8
20260505074555 69 175 3.0 6.0 0.00 0.00 0.00 83 1008.9
20260505073027 69 198 4.0 9.0 0.00 0.00 0.00 82 1009.1
20260505071605 69 201 5.0 11.0 0.00 0.00 0.00 82 1009.1
20260505070137 69 198 3.0 14.0 0.00 0.00 0.00 82 1009.3
20260505064510 70 194 4.0 11.0 0.00 0.00 0.00 81 1009.4
20260505063045 70 136 6.0 12.0 0.00 0.00 0.00 81 1009.3
20260505061519 70 169 6.0 12.0 0.00 0.00 0.00 81 1009.2
20260505060053 70 179 6.0 10.0 0.00 0.00 0.00 80 1009.6
20260505054525 70 189 5.0 15.0 0.00 0.00 0.00 80 1009.5
20260505053009 70 154 5.0 10.0 0.00 0.00 0.00 79 1009.7
20260505051557 70 174 6.0 9.0 0.00 0.00 0.00 79 1009.8
20260505041602 71 135 3.0 10.0 0.00 0.00 0.00 77 1010.0
20260505040036 71 138 3.0 11.0 0.00 0.00 0.00 77 1010.1
20260505034511 71 104 4.0 11.0 0.00 0.00 0.00 76 1010.1
20260505033047 71 119 4.0 11.0 0.00 0.00 0.00 75 1010.4
20260505031524 72 121 4.0 10.0 0.00 0.00 0.00 75 1010.2
20260505030001 72 168 4.0 11.0 0.00 0.00 0.00 74 1010.0
20260505024540 72 148 4.0 13.0 0.00 0.00 0.00 74 1009.8
20260505023023 73 115 5.0 16.0 0.00 0.00 0.00 73 1009.7
20260505021557 73 158 5.0 13.0 0.00 0.00 0.00 73 1009.4
20260505020034 73 135 4.0 12.0 0.00 0.00 0.00 72 1009.4
20260505014515 74 168 4.0 11.0 0.00 0.00 0.00 72 1009.2
20260505013102 74 139 4.0 11.0 0.00 0.00 0.00 71 1009.2
20260505011528 75 123 5.0 11.0 0.00 0.00 0.00 70 1009.2
20260505010003 76 136 3.0 11.0 0.00 0.00 0.00 68 1009.0
20260505004540 77 145 4.0 12.0 0.00 0.00 0.00 67 1009.0
20260505003011 78 146 5.0 13.0 0.00 0.00 0.00 65 1009.0
20260505001543 78 179 2.0 9.0 0.00 0.00 0.00 65 1009.2
20260505000021 79 141 4.0 10.0 0.00 0.00 0.00 64 1009.5
20260504234548 79 191 7.0 10.0 0.00 0.00 0.00 63 1009.3
20260504233016 80 201 7.0 14.0 0.00 0.00 0.00 61 1009.6
20260504231546 80 181 7.0 14.0 0.00 0.00 0.00 61 1009.7
20260504230014 80 198 6.0 12.0 0.00 0.00 0.00 61 1010.0
20260504224550 80 160 6.0 16.0 0.00 0.00 0.00 61 1010.2
20260504223026 80 120 6.0 11.0 0.00 0.00 0.00 60 1010.0
20260504221604 80 123 5.0 11.0 0.00 0.00 0.00 60 1010.2
20260504220041 80 150 7.0 11.0 0.00 0.00 0.00 58 1010.0
20260504214517 81 151 6.0 12.0 0.00 0.00 0.00 58 1010.3
20260504213042 82 219 6.0 11.0 0.00 0.00 0.00 57 1010.5
20260504211510 82 186 6.0 13.0 0.00 0.00 0.00 57 1010.6
20260504210038 81 144 6.0 11.0 0.00 0.00 0.00 56 1010.9
20260504204516 82 120 5.0 13.0 0.00 0.00 0.00 55 1011.3
20260504203040 81 122 6.0 12.0 0.00 0.00 0.00 56 1011.5
20260504201511 82 153 6.0 13.0 0.00 0.00 0.00 56 1011.9
20260504200046 82 182 7.0 13.0 0.00 0.00 0.00 55 1011.9
20260504194513 82 121 4.0 14.0 0.00 0.00 0.00 55 1012.1
20260504193045 81 131 6.0 14.0 0.00 0.00 0.00 56 1012.2
20260504191522 81 160 6.0 11.0 0.00 0.00 0.00 56 1012.4
20260504190105 81 174 7.0 13.0 0.00 0.00 0.00 56 1012.8
20260504184524 81 136 7.0 14.0 0.00 0.00 0.00 54 1012.8
20260504183052 81 194 9.0 17.0 0.00 0.00 0.00 56 1012.8
20260504181526 80 191 7.0 15.0 0.00 0.00 0.00 57 1013.3
20260504180055 80 144 5.0 13.0 0.00 0.00 0.00 57 1013.5
20260504174526 80 171 5.0 13.0 0.00 0.00 0.00 56 1013.4
20260504173054 78 176 5.0 13.0 0.00 0.00 0.00 58 1013.9
20260504171522 78 203 7.0 14.0 0.00 0.00 0.00 60 1014.2